This demonstration page uses our WeatherBlox Daily Observations layout. Learn more.

Left ArrowRight Arrow

47.50024, -111.30081

Hourly Observations for May 9, 2015

Temp ( °F °C ) Dew Point ( °F °C ) Humidity (%) Winds ( mph kmh ) Pressure ( in mb ) Visibility ( mi km ) Precip ( " mm )
12:53 am 00:53 Clear 33 0.6 29 -1.7 85 85 N 3 6 30.25 1024 10 16 0.00 0.00
1:53 am 01:53 Clear 32 0 29 -1.7 88 88 E 3 6 30.26 1025 10 16 0.00 0.00
2:53 am 02:53 Clear 35 1.7 31 -0.6 85 85 ESE 8 13 30.22 1024 10 16 0.00 0.00
3:53 am 03:53 Clear 28 -2.2 27 -2.8 96 96 Calm 30.26 1025 10 16 0.00 0.00
4:53 am 04:53 Clear 28 -2.2 26 -3.3 92 92 W 3 6 30.27 1025 9 14 0.00 0.00
5:53 am 05:53 Clear 28 -2.2 26 -3.3 92 92 SSE 3 6 30.28 1025 10 16 0.00 0.00
6:53 am 06:53 Sunny 30 -1.1 28 -2.2 92 92 SSW 5 7 30.29 1026 10 16 0.00 0.00
7:53 am 07:53 Sunny 36 2.2 33 0.6 89 89 SSW 5 7 30.29 1026 10 16 0.00 0.00
8:53 am 08:53 Sunny 40 4.4 34 1.1 79 79 Calm 30.28 1026 10 16 0.00 0.00
9:53 am 09:53 Sunny 45 7.2 34 1.1 66 66 SE 5 7 30.27 1025 10 16 0.00 0.00
10:53 am 10:53 Sunny 48 8.9 31 -0.6 52 52 ENE 6 9 30.27 1025 10 16 0.00 0.00
11:53 am 11:53 Sunny 50 10 27 -2.8 41 41 VRB 3 6 30.25 1025 10 16 0.00 0.00
12:53 pm 12:53 Partly Cloudy 52 11.1 25 -3.9 35 35 ENE 8 13 30.24 1024 10 16 0.00 0.00
1:53 pm 13:53 Partly Cloudy 54 12.2 22 -5.6 29 29 ESE 7 11 30.24 1024 10 16 0.00 0.00
2:53 pm 14:53 Mostly Cloudy 56 13.3 21 -6.1 26 26 VRB 3 6 30.22 1023 10 16 0.00 0.00
3:53 pm 15:53 Mostly Cloudy 57 13.9 23 -5 27 27 NE 13 20 30.23 1024 10 16 0.00 0.00
4:53 pm 16:53 Partly Cloudy 57 13.9 21 -6.1 25 25 ENE 9 15 30.22 1024 10 16 0.00 0.00
5:53 pm 17:53 Mostly Sunny 56 13.3 20 -6.7 24 24 NE 10 17 30.24 1024 10 16 0.00 0.00
6:53 pm 18:53 Sunny 56 13.3 20 -6.7 24 24 NE 16 26 30.23 1024 10 16 0.00 0.00
7:53 pm 19:53 Sunny 52 11.1 20 -6.7 28 28 ENE 10 17 30.23 1024 10 16 0.00 0.00
8:53 pm 20:53 Clear 46 7.8 21 -6.1 37 37 E 7 11 30.25 1024 10 16 0.00 0.00
9:53 pm 21:53 Clear 44 6.7 24 -4.4 45 45 ESE 9 15 30.25 1024 10 16 0.00 0.00
10:53 pm 22:53 Clear 41 5 25 -3.9 53 53 SE 7 11 30.25 1024 10 16 0.00 0.00
11:53 pm 23:53 Clear 41 5 25 -3.9 53 53 SSE 8 13 30.24 1024 10 16 0.00 0.00

Powered by AerisWeather